Date String (YYYY-MM-DD hh:mm:ss) UTC,Instrument flags,Ambient pressure (hPa),Sample flow (lpm),Bypass flow (lpm),Sample temperature (°C),Ambient temperature (°C),ASC tube jacket temperature (°C),LED temperature (°C),Box temperature (°C),Sample RH (%),Span deviation,Mass concentration (μg/m³),Mass concentration (μg/m³),Mass concentration (μg/m³)
DateTimeUTC,F1_M11,P_M11,Q1_M11,Q2_M11,T1_M11,T2_M11,T3_M11,T4_M11,T5_M11,U1_M11,ZSPAN_M11,X0_M11,X2_M11,X1_M11
2022-04-20 14:00:00,,0818.3,5.00,0.00,26.3,25.5,00.0,35.2,28.1,14.2,0000.0,0025.60,0006.31,0002.57
2022-04-20 14:01:00,,0818.4,4.99,0.00,26.3,25.5,00.0,35.2,28.1,14.2,0000.0,0025.42,0006.33,0002.58
2022-04-20 14:02:00,,0818.4,5.01,0.00,26.3,25.6,00.0,35.2,28.1,14.2,0000.0,0025.77,0006.37,0002.62
2022-04-20 14:03:00,,0818.4,5.00,0.00,26.3,25.6,00.0,35.3,28.1,14.1,0000.0,0025.78,0006.44,0002.68
2022-04-20 14:04:00,,0818.3,5.01,0.00,26.3,25.5,00.0,35.2,28.1,14.1,0000.0,0025.73,0006.51,0002.72
2022-04-20 14:05:00,,0818.3,5.00,0.00,26.3,25.6,00.0,35.3,28.1,14.0,0000.0,0024.36,0006.48,0002.74
2022-04-20 14:06:00,,0818.3,4.99,0.00,26.3,25.5,00.0,35.3,28.1,14.0,0000.0,0024.30,0006.61,0002.76
2022-04-20 14:07:00,,0818.3,5.02,0.00,26.3,25.5,00.0,35.3,28.1,14.2,0000.0,0023.99,0006.60,0002.78
2022-04-20 14:08:00,,0818.4,5.01,0.00,26.3,25.5,00.0,35.2,28.1,14.2,0000.0,0023.86,0006.62,0002.81
2022-04-20 14:09:00,,0818.4,4.99,0.00,26.3,25.5,00.0,35.2,28.1,14.3,0000.0,0022.61,0006.67,0002.84
2022-04-20 14:10:00,,0818.4,5.00,0.00,26.3,25.6,00.0,35.2,28.1,14.3,0000.0,0022.24,0006.69,0002.86
2022-04-20 14:11:00,,0818.4,5.00,0.00,26.3,25.6,00.0,35.3,28.2,14.2,0000.0,0021.86,0006.75,0002.87
2022-04-20 14:12:00,,0818.4,5.00,0.00,26.4,25.7,00.0,35.3,28.3,14.2,0000.0,0022.37,0006.86,0002.89
2022-04-20 14:13:00,,0818.4,5.01,0.00,26.4,25.7,00.0,35.3,28.3,14.3,0000.0,0021.93,0006.89,0002.89
2022-04-20 14:14:00,,0818.5,4.99,0.00,26.4,25.7,00.0,35.3,28.2,14.4,0000.0,0021.79,0006.89,0002.86
2022-04-20 14:15:00,,0818.5,5.00,0.00,26.4,25.7,00.0,35.3,28.2,14.3,0000.0,0022.29,0006.92,0002.86
2022-04-20 14:16:00,,0818.4,5.00,0.00,26.4,25.6,00.0,35.3,28.2,14.1,0000.0,0022.48,0006.87,0002.86
2022-04-20 14:17:00,,0818.4,5.01,0.00,26.4,25.7,00.0,35.3,28.2,14.1,0000.0,0022.12,0006.85,0002.87
2022-04-20 14:18:00,,0818.4,5.00,0.00,26.4,25.6,00.0,35.3,28.2,14.1,0000.0,0022.47,0006.89,0002.89
2022-04-20 14:19:00,,0818.5,5.00,0.00,26.4,25.6,00.0,35.3,28.2,14.0,0000.0,0022.00,0006.89,0002.88
2022-04-20 14:20:00,,0818.4,5.02,0.00,26.4,25.7,00.0,35.3,28.2,14.2,0000.0,0021.61,0006.86,0002.90
2022-04-20 14:21:00,,0818.4,4.99,0.00,26.4,25.6,00.0,35.3,28.2,14.2,0000.0,0021.61,0006.80,0002.91
2022-04-20 14:22:00,,0818.4,5.00,0.00,26.4,25.6,00.0,35.3,28.2,14.1,0000.0,0021.54,0006.77,0002.95
2022-04-20 14:23:00,,0818.4,5.00,0.00,26.4,25.6,00.0,35.3,28.2,14.0,0000.0,0021.71,0006.70,0002.98
2022-04-20 14:24:00,,0818.4,5.00,0.00,26.4,25.6,00.0,35.3,28.2,14.0,0000.0,0021.75,0006.72,0003.00
2022-04-20 14:25:00,,0818.4,5.00,0.00,26.4,25.6,00.0,35.3,28.2,14.1,0000.0,0021.21,0006.68,0003.02
2022-04-20 14:26:00,,0818.5,4.99,0.00,26.4,25.5,00.0,35.3,28.2,14.1,0000.0,0020.29,0006.66,0003.02
2022-04-20 14:27:00,,0818.5,5.00,0.00,26.4,25.5,00.0,35.3,28.2,14.1,0000.0,0020.44,0006.81,0003.03
2022-04-20 14:28:00,,0818.4,5.01,0.00,26.4,25.5,00.0,35.3,28.2,14.4,0000.0,0020.70,0006.83,0003.01
2022-04-20 14:29:00,,0818.4,5.00,0.00,26.4,25.5,00.0,35.3,28.2,14.2,0000.0,0020.26,0006.78,0002.97
2022-04-20 14:30:00,,0818.4,5.00,0.00,26.4,25.5,00.0,35.3,28.2,14.4,0000.0,0021.17,0006.69,0002.93
2022-04-20 14:31:00,,0818.4,5.00,0.00,26.3,25.5,00.0,35.3,28.1,14.3,0000.0,0021.53,0006.66,0002.87
2022-04-20 14:32:00,,0818.4,5.01,0.00,26.3,25.4,00.0,35.3,28.1,14.3,0000.0,0021.63,0006.72,0002.84
2022-04-20 14:33:00,,0818.4,4.99,0.00,26.3,25.4,00.0,35.3,28.1,14.2,0000.0,0021.18,0006.65,0002.81
2022-04-20 14:34:00,,0818.4,5.00,0.00,26.3,25.4,00.0,35.3,28.1,14.2,0000.0,0020.19,0006.65,0002.78
2022-04-20 14:35:00,,0818.4,5.00,0.00,26.3,25.4,00.0,35.3,28.1,14.3,0000.0,0021.03,0006.57,0002.75
2022-04-20 14:36:00,,0818.5,5.01,0.00,26.3,25.3,00.0,35.3,28.1,14.3,0000.0,0022.12,0006.55,0002.72
2022-04-20 14:37:00,,0818.4,4.99,0.00,26.3,25.3,00.0,35.3,28.1,14.4,0000.0,0022.49,0006.47,0002.71
2022-04-20 14:38:00,,0818.5,5.00,0.00,26.3,25.2,00.0,35.3,28.1,14.4,0000.0,0023.67,0006.40,0002.71
2022-04-20 14:39:00,,0818.5,5.01,0.00,26.2,25.2,00.0,35.3,28.0,14.3,0000.0,0023.36,0006.41,0002.73
2022-04-20 14:40:00,,0818.5,4.99,0.00,26.2,25.2,00.0,35.3,28.0,14.2,0000.0,0023.27,0006.38,0002.74
2022-04-20 14:41:00,,0818.4,5.00,0.00,26.2,25.3,00.0,35.2,28.0,14.3,0000.0,0021.90,0006.34,0002.77
2022-04-20 14:42:00,,0818.4,5.02,0.00,26.2,25.3,00.0,35.2,28.0,14.4,0000.0,0022.48,0006.25,0002.77
2022-04-20 14:43:00,,0818.4,4.99,0.00,26.2,25.2,00.0,35.2,28.0,14.4,0000.0,0022.60,0006.13,0002.79
2022-04-20 14:44:00,,0818.4,5.00,0.00,26.2,25.2,00.0,35.2,28.0,14.4,0000.0,0023.18,0006.08,0002.78
2022-04-20 14:45:00,,0818.5,5.01,0.00,26.2,25.2,00.0,35.2,27.9,14.4,0000.0,0023.55,0006.03,0002.79
2022-04-20 14:46:00,,0818.5,4.99,0.00,26.2,25.1,00.0,35.2,27.9,14.4,0000.0,0022.66,0006.04,0002.76
2022-04-20 14:47:00,,0818.5,5.00,0.00,26.2,25.1,00.0,35.2,27.9,14.6,0000.0,0021.61,0006.01,0002.73
2022-04-20 14:48:00,,0818.5,5.01,0.00,26.2,25.1,00.0,35.2,27.9,14.4,0000.0,0021.32,0005.99,0002.73
2022-04-20 14:49:00,,0818.5,4.99,0.00,26.1,25.2,00.0,35.2,27.9,14.6,0000.0,0020.11,0005.94,0002.74
2022-04-20 14:50:00,,0818.6,4.98,0.00,26.1,25.2,00.0,35.2,27.9,14.6,0000.0,0020.45,0005.85,0002.72
2022-04-20 14:51:00,,0818.5,5.00,0.00,26.1,25.2,00.0,35.2,28.0,14.4,0000.0,0020.81,0005.86,0002.72
2022-04-20 14:52:00,,0818.5,5.00,0.00,26.2,25.3,00.0,35.2,28.0,14.4,0000.0,0021.49,0005.88,0002.70
2022-04-20 14:53:00,,0818.4,4.99,0.00,26.2,25.3,00.0,35.1,27.9,14.5,0000.0,0021.27,0005.90,0002.71
2022-04-20 14:54:00,,0818.4,5.01,0.00,26.2,25.2,00.0,35.1,27.9,14.7,0000.0,0021.48,0005.87,0002.70
2022-04-20 14:55:00,,0818.4,5.01,0.00,26.2,25.3,00.0,35.1,28.0,14.6,0000.0,0022.47,0005.89,0002.69
2022-04-20 14:56:00,,0818.5,5.00,0.00,26.2,25.3,00.0,35.1,28.0,14.7,0000.0,0022.49,0005.82,0002.66
2022-04-20 14:57:00,,0818.5,4.99,0.00,26.2,25.3,00.0,35.2,28.0,14.5,0000.0,0022.19,0005.75,0002.66
2022-04-20 14:58:00,,0818.5,5.01,0.00,26.2,25.2,00.0,35.2,27.9,14.5,0000.0,0022.65,0005.71,0002.67
2022-04-20 14:59:00,,0818.4,5.00,0.00,26.2,25.2,00.0,35.1,27.9,14.5,0000.0,0022.47,0005.75,0002.67
